Location: Antioch Baptist Church
(32.6696°N, 85.7327°W)
Time: 20:46:06
(UTC+00:00)

Cosmos 2369 Rocket - Pass Details

Date: 14 July 2020
Orbit: 829 x 852 km, 71.0° (Epoch: 12 August)

Event Time Altitude Azimuth Distance (km) Brightness Sun altitude
Rises 04:26:22 0° 347° (NNW) 3,379 6.4 -32.3°
Reaches altitude 10° 04:28:56 10° 354° (N) 2,445 5.4 -32.5°
Enters shadow 04:32:57 37° 32° (NNE) 1,283 3.3 -32.8°
